Tracking 30703 objects as of 13-Jun-2025
HD Live streaming from Space Station
objects crossing your sky now

STARLINK-30262

Track STARLINK-30262 now!
10-day predictions
STARLINK-30262 is classified as:


NORAD ID: 57535
Int'l Code: 2023-115Q
Perigee: 306.4 km
Apogee: 318.5 km
Inclination: 43.0 °
Period: 90.6 minutes
Semi major axis: 6683 km
RCS: Unknown
Launch date: August 8, 2023
Source: United States (US)
Launch site: AIR FORCE WESTERN TEST RANGE (AFWTR)
Your satellite tracking list
Your tracking list is empty




NASA's NSSDC Master Catalog

Two Line Element Set (TLE):
1 57535U 23115Q   25163.91667824  .00286833  00000-0  94327-3 0  9995
2 57535  42.9944 233.8199 0009082  35.9751 322.0208 15.88911324  6064
Source of the keplerian elements: AFSPC